This is the latest recevied weather packets stored in our database for station/object DB0GIS-11. If no packets are shown the sender has not sent any weather packets the latest 10 day(s).
| Time | Temp. | Humidity | Pressure | Rain* | Wind** | Luminosity | Snow |
|---|---|---|---|---|---|---|---|
| 1777807057 | 20.56° C | 56% | 1010.2 hPa | 0 mm | - | - | - |
| 1777803454 | 18.33° C | 58% | 1010.7 hPa | 0 mm | - | - | - |
| 1777799854 | 18.33° C | 58% | 1011.2 hPa | 0 mm | - | - | - |
| 1777796848 | 16.67° C | 60% | 1011.4 hPa | 0 mm | - | - | - |
| 1777793858 | 16.11° C | 62% | 1011.7 hPa | 0 mm | - | - | - |
| 1777793255 | 15.56° C | 62% | 1011.6 hPa | 0 mm | - | - | - |
| 1777791454 | 15.56° C | 61% | 1011.6 hPa | 0 mm | - | - | - |
| 1777787272 | 15° C | 63% | 1010.8 hPa | 0 mm | - | - | - |
| 1777786653 | 14.44° C | 63% | 1010.6 hPa | 0 mm | - | - | - |
| 1777785457 | 13.33° C | 63% | 1010.8 hPa | 0 mm | - | - | - |
| 1777781294 | 13.33° C | 62% | 1010.6 hPa | 0 mm | - | - | - |
| 1777780651 | 13.33° C | 61% | 1010.6 hPa | 0 mm | - | - | - |
| 1777780049 | 13.33° C | 61% | 1010.5 hPa | 0 mm | - | - | - |
| 1777778850 | 13.33° C | 61% | 1010.7 hPa | 0 mm | - | - | - |
| 1777778251 | 13.89° C | 61% | 1010.7 hPa | 0 mm | - | - | - |
| 1777777841 | 13.89° C | 60% | 1010.7 hPa | 0 mm | - | - | - |
| 1777776456 | 13.89° C | 60% | 1010.7 hPa | 0 mm | - | - | - |
| 1777775850 | 13.89° C | 59% | 1010.7 hPa | 0 mm | - | - | - |
| 1777772267 | 15° C | 56% | 1011 hPa | 0 mm | - | - | - |
| 1777767455 | 15.56° C | 54% | 1011.4 hPa | 0 mm | - | - | - |
| 1777766259 | 16.11° C | 52% | 1011.4 hPa | 0 mm | - | - | - |
| 1777765063 | 16.67° C | 51% | 1011.6 hPa | 0 mm | - | - | - |
| 1777763252 | 17.22° C | 51% | 1011.9 hPa | 0 mm | - | - | - |
| 1777762656 | 17.22° C | 51% | 1011.8 hPa | 0 mm | - | - | - |
| 1777762048 | 17.22° C | 51% | 1011.8 hPa | 0 mm | - | - | - |
* Rain latest hour (hover to see other rain measurements)
** Current wind speed in m/s (hover to see current wind gust speed)